ニート彗星

207P/NEAT (2001)

English version
Home page
Updated on October 21, 2008

---------------------------------------------------------------------

・ プロフィール

符号 207P/2001 J1
発見日 2001年5月11日
発見光度 19.9等
発見者 Near-Earth-Asteroid Tracking Team (Jet Propulsion Laboratory)

・ 軌道要素

                    Epoch = 2001 Apr.  1.0 TT
     T = 2001 Mar. 14.1052 TT         Peri. = 271.0222
     e = 0.758290                     Node  = 200.7993  2000.0
     q = 0.937075 AU                  Incl. =  10.1577
       a =  3.876861 AU    n = 0.1291171    P =   7.633 years

・ 星図

・ 光度変化

        m1 = 16.0 + 5 logΔ + 10.0 log r

---------------------------------------------------------------------

軌道要素は、IAUC 8996に掲載されたものです。
星図は StellaNavigator Ver.2.0 for Windows (アストロアーツ編著 / アスキー出版局刊) で作成したものです。
光度グラフはComet for Windowsで作成したものです。

---------------------------------------------------------------------

Copyright(C) Seiichi Yoshida (comet@aerith.net). All rights reserved.